| time (UTC) | temp C | wind direction | speed KPH | gust KPH | rain 1hr cm | rain 24hr cm | rain mn cm | humidity % | barometer mb |
| 20260906123100 | 25 | 111 | 12.9 | 19.3 | 0.00 | 0.00 | 0.00 | 88 | 1013.5 |
| 20260906123010 | 25 | 113 | 12.9 | 19.3 | 0.00 | 0.00 | 0.00 | 88 | 1013.4 |
| 20260906122728 | 25 | 101 | 14.5 | 19.3 | 0.00 | 0.00 | 0.00 | 88 | 1016.4 |
| 20260906122239 | 25 | 118 | 11.3 | 19.3 | 0.00 | 0.00 | 0.00 | 88 | 1016.2 |
| 20260906121722 | 25 | 142 | 11.3 | 19.3 | 0.00 | 0.00 | 0.00 | 88 | 1016.1 |
| 20260906121507 | 24 | 123 | 11.3 | 14.5 | 0.00 | 0.00 | 0.00 | 88 | 1013.2 |
| 20260906121255 | 25 | 120 | 11.3 | 14.5 | 0.00 | 0.00 | 0.00 | 88 | 1016.1 |
| 20260906120742 | 25 | 123 | 8.0 | 14.5 | 0.00 | 0.00 | 0.00 | 88 | 1016.1 |
| 20260906120225 | 25 | 106 | 8.0 | 14.5 | 0.00 | 0.00 | 0.00 | 88 | 1016.1 |
| 20260906120020 | 24 | 126 | 6.4 | 14.5 | 0.00 | 0.00 | 0.00 | 88 | 1013.2 |
| 20260906115732 | 25 | 101 | 6.4 | 14.5 | 0.00 | 0.00 | 0.00 | 88 | 1016.0 |
| 20260906115306 | 25 | 138 | 6.4 | 14.5 | 0.00 | 0.00 | 0.00 | 88 | 1015.8 |
| 20260906114725 | 25 | 142 | 6.4 | 14.5 | 0.00 | 0.00 | 0.00 | 87 | 1015.7 |
| 20260906114503 | 24 | 100 | 11.3 | 14.5 | 0.00 | 0.00 | 0.00 | 87 | 1012.8 |
| 20260906114240 | 25 | 100 | 9.7 | 14.5 | 0.00 | 0.00 | 0.00 | 87 | 1015.6 |
| 20260906113750 | 25 | 82 | 8.0 | 14.5 | 0.00 | 0.00 | 0.00 | 87 | 1015.6 |
| 20260906113240 | 25 | 107 | 9.7 | 14.5 | 0.00 | 0.00 | 0.00 | 87 | 1015.6 |
| 20260906113047 | 25 | 126 | 8.0 | 12.9 | 0.00 | 0.00 | 0.00 | 87 | 1012.7 |
| 20260906112808 | 25 | 108 | 6.4 | 12.9 | 0.00 | 0.00 | 0.00 | 87 | 1015.6 |
| 20260906112230 | 25 | 119 | 6.4 | 12.9 | 0.00 | 0.00 | 0.00 | 87 | 1015.7 |
| 20260906111807 | 25 | 105 | 8.0 | 11.3 | 0.00 | 0.00 | 0.00 | 87 | 1015.7 |
| 20260906111605 | 25 | 113 | 6.4 | 11.3 | 0.00 | 0.00 | 0.00 | 87 | 1012.8 |
| 20260906111318 | 25 | 121 | 6.4 | 11.3 | 0.00 | 0.00 | 0.00 | 87 | 1015.8 |
| 20260906110834 | 25 | 134 | 4.8 | 11.3 | 0.00 | 0.00 | 0.00 | 87 | 1015.9 |
| 20260906110229 | 25 | 109 | 6.4 | 14.5 | 0.00 | 0.00 | 0.00 | 87 | 1015.9 |
| 20260906110014 | 25 | 131 | 4.8 | 14.5 | 0.00 | 0.00 | 0.00 | 87 | 1013.0 |
| 20260906105801 | 25 | 126 | 9.7 | 14.5 | 0.00 | 0.00 | 0.00 | 86 | 1015.9 |
| 20260906105247 | 25 | 144 | 4.8 | 11.3 | 0.00 | 0.00 | 0.00 | 86 | 1015.9 |
| 20260906104736 | 25 | 153 | 4.8 | 12.9 | 0.00 | 0.00 | 0.00 | 86 | 1015.8 |
| 20260906104533 | 25 | 119 | 6.4 | 12.9 | 0.00 | 0.00 | 0.00 | 86 | 1012.8 |
| 20260906104248 | 25 | 117 | 6.4 | 12.9 | 0.00 | 0.00 | 0.00 | 86 | 1015.6 |
| 20260906103738 | 25 | 124 | 4.8 | 12.9 | 0.00 | 0.00 | 0.00 | 86 | 1015.6 |
| 20260906103245 | 25 | 112 | 6.4 | 14.5 | 0.00 | 0.00 | 0.00 | 86 | 1015.4 |
| 20260906103058 | 25 | 128 | 6.4 | 14.5 | 0.00 | 0.00 | 0.00 | 86 | 1012.5 |
| 20260906102729 | 25 | 94 | 8.0 | 14.5 | 0.00 | 0.00 | 0.00 | 86 | 1015.3 |
| 20260906102300 | 25 | 133 | 8.0 | 14.5 | 0.00 | 0.00 | 0.00 | 86 | 1015.3 |
| 20260906101810 | 25 | 134 | 9.7 | 14.5 | 0.00 | 0.00 | 0.00 | 86 | 1015.3 |
| 20260906101520 | 25 | 126 | 6.4 | 17.7 | 0.00 | 0.00 | 0.00 | 86 | 1012.4 |
| 20260906101233 | 25 | 121 | 9.7 | 17.7 | 0.00 | 0.00 | 0.00 | 86 | 1015.3 |
| 20260906100742 | 25 | 111 | 11.3 | 17.7 | 0.00 | 0.00 | 0.00 | 86 | 1015.4 |
| 20260906100224 | 25 | 107 | 11.3 | 16.1 | 0.00 | 0.00 | 0.00 | 86 | 1015.3 |
| 20260906100018 | 25 | 115 | 9.7 | 16.1 | 0.00 | 0.00 | 0.00 | 86 | 1012.5 |
| 20260906095732 | 25 | 105 | 11.3 | 16.1 | 0.00 | 0.00 | 0.00 | 86 | 1015.3 |
| 20260906095245 | 25 | 95 | 8.0 | 16.1 | 0.00 | 0.00 | 0.00 | 85 | 1015.3 |
| 20260906094729 | 25 | 108 | 9.7 | 14.5 | 0.00 | 0.00 | 0.00 | 85 | 1015.3 |
| 20260906094536 | 25 | 125 | 8.0 | 12.9 | 0.00 | 0.00 | 0.00 | 85 | 1012.4 |
| 20260906094241 | 25 | 100 | 6.4 | 12.9 | 0.00 | 0.00 | 0.00 | 85 | 1015.3 |
| 20260906093749 | 25 | 108 | 8.0 | 11.3 | 0.00 | 0.00 | 0.00 | 85 | 1015.3 |
| 20260906093231 | 25 | 119 | 6.4 | 11.3 | 0.00 | 0.00 | 0.00 | 84 | 1015.3 |
| 20260906093036 | 25 | 116 | 4.8 | 9.7 | 0.00 | 0.00 | 0.00 | 84 | 1012.4 |
| 20260906092744 | 25 | 127 | 4.8 | 9.7 | 0.00 | 0.00 | 0.00 | 84 | 1015.3 |
| 20260906092227 | 25 | 12 | 4.8 | 9.7 | 0.00 | 0.00 | 0.00 | 84 | 1015.4 |
| 20260906091734 | 25 | 136 | 4.8 | 6.4 | 0.00 | 0.00 | 0.00 | 84 | 1015.4 |
| 20260906091510 | 25 | 131 | 3.2 | 6.4 | 0.00 | 0.00 | 0.00 | 84 | 1012.4 |
| 20260906091247 | 25 | 118 | 4.8 | 9.7 | 0.00 | 0.00 | 0.00 | 84 | 1015.3 |
| 20260906090735 | 25 | 130 | 4.8 | 11.3 | 0.00 | 0.00 | 0.00 | 84 | 1015.3 |
| 20260906090246 | 25 | 107 | 6.4 | 11.3 | 0.00 | 0.00 | 0.00 | 84 | 1015.3 |
| 20260906090054 | 25 | 112 | 6.4 | 11.3 | 0.00 | 0.00 | 0.00 | 84 | 1012.4 |
| 20260906085730 | 25 | 109 | 4.8 | 9.7 | 0.00 | 0.00 | 0.00 | 83 | 1015.4 |
| 20260906085300 | 25 | 107 | 4.8 | 9.7 | 0.00 | 0.00 | 0.00 | 83 | 1015.4 |
| 20260906084807 | 25 | 107 | 4.8 | 9.7 | 0.00 | 0.00 | 0.00 | 83 | 1015.4 |
| 20260906084600 | 25 | 96 | 4.8 | 9.7 | 0.00 | 0.00 | 0.00 | 83 | 1012.5 |
| 20260906084503 | 25 | 96 | 4.8 | 9.7 | 0.00 | 0.00 | 0.00 | 83 | 1012.5 |
| 20260906084230 | 26 | 77 | 6.4 | 9.7 | 0.00 | 0.00 | 0.00 | 83 | 1015.3 |
| 20260906083800 | 26 | 113 | 6.4 | 9.7 | 0.00 | 0.00 | 0.00 | 82 | 1015.3 |
| 20260906083222 | 26 | 139 | 4.8 | 11.3 | 0.00 | 0.00 | 0.00 | 82 | 1015.2 |
| 20260906083039 | 25 | 134 | 4.8 | 11.3 | 0.00 | 0.00 | 0.00 | 82 | 1012.3 |
| 20260906082732 | 26 | 132 | 4.8 | 9.7 | 0.00 | 0.00 | 0.00 | 82 | 1015.2 |
| 20260906082305 | 26 | 145 | 4.8 | 11.3 | 0.00 | 0.00 | 0.00 | 82 | 1015.1 |
| 20260906081724 | 26 | 118 | 4.8 | 11.3 | 0.00 | 0.00 | 0.00 | 82 | 1015.1 |
| 20260906081519 | 26 | 131 | 4.8 | 11.3 | 0.00 | 0.00 | 0.00 | 82 | 1012.3 |
| 20260906081233 | 26 | 122 | 6.4 | 12.9 | 0.00 | 0.00 | 0.00 | 82 | 1015.2 |
| 20260906080742 | 26 | 138 | 6.4 | 12.9 | 0.00 | 0.00 | 0.00 | 82 | 1015.2 |
| 20260906080225 | 26 | 148 | 8.0 | 14.5 | 0.00 | 0.00 | 0.00 | 82 | 1015.2 |
| 20260906080028 | 26 | 142 | 8.0 | 14.5 | 0.00 | 0.00 | 0.00 | 82 | 1012.1 |
| 20260906075736 | 26 | 134 | 9.7 | 16.1 | 0.00 | 0.00 | 0.00 | 82 | 1015.0 |
| 20260906075248 | 26 | 145 | 9.7 | 16.1 | 0.00 | 0.00 | 0.00 | 82 | 1014.9 |
| 20260906074732 | 26 | 147 | 11.3 | 19.3 | 0.00 | 0.00 | 0.00 | 81 | 1014.9 |
| 20260906074518 | 26 | 139 | 9.7 | 19.3 | 0.00 | 0.00 | 0.00 | 81 | 1012.1 |
| 20260906074223 | 26 | 141 | 14.5 | 19.3 | 0.00 | 0.00 | 0.00 | 81 | 1014.9 |
| 20260906073730 | 26 | 140 | 11.3 | 19.3 | 0.00 | 0.00 | 0.00 | 81 | 1015.0 |
| 20260906073241 | 26 | 114 | 9.7 | 17.7 | 0.00 | 0.00 | 0.00 | 81 | 1015.0 |
| 20260906073054 | 26 | 136 | 8.0 | 17.7 | 0.00 | 0.00 | 0.00 | 81 | 1012.2 |
| 20260906072722 | 26 | 132 | 11.3 | 17.7 | 0.00 | 0.00 | 0.00 | 81 | 1015.1 |
| 20260906072233 | 26 | 130 | 11.3 | 16.1 | 0.00 | 0.00 | 0.00 | 81 | 1015.1 |
| 20260906071745 | 26 | 119 | 8.0 | 17.7 | 0.00 | 0.00 | 0.00 | 81 | 1015.1 |
| 20260906071559 | 26 | 140 | 8.0 | 17.7 | 0.00 | 0.00 | 0.00 | 81 | 1012.2 |
| 20260906071230 | 26 | 132 | 12.9 | 17.7 | 0.00 | 0.00 | 0.00 | 81 | 1015.2 |
| 20260906070739 | 26 | 148 | 11.3 | 17.7 | 0.00 | 0.00 | 0.00 | 81 | 1015.2 |
| 20260906070249 | 26 | 145 | 9.7 | 19.3 | 0.00 | 0.00 | 0.00 | 80 | 1015.2 |
| 20260906070053 | 26 | 129 | 9.7 | 22.5 | 0.00 | 0.00 | 0.00 | 80 | 1012.3 |
| 20260906065727 | 26 | 136 | 12.9 | 22.5 | 0.00 | 0.00 | 0.00 | 80 | 1015.2 |
| 20260906065238 | 26 | 126 | 14.5 | 22.5 | 0.00 | 0.00 | 0.00 | 80 | 1015.3 |
| 20260906064722 | 26 | 139 | 11.3 | 19.3 | 0.00 | 0.00 | 0.00 | 80 | 1015.3 |
| 20260906064557 | 26 | 117 | 9.7 | 19.3 | 0.00 | 0.00 | 0.00 | 80 | 1012.5 |
| 20260906064235 | 26 | 105 | 11.3 | 19.3 | 0.00 | 0.00 | 0.00 | 80 | 1015.4 |
| 20260906063745 | 26 | 136 | 11.3 | 19.3 | 0.00 | 0.00 | 0.00 | 80 | 1015.5 |
| 20260906063228 | 27 | 154 | 11.3 | 17.7 | 0.00 | 0.00 | 0.00 | 80 | 1015.5 |
| 20260906063008 | 26 | 121 | 9.7 | 17.7 | 0.00 | 0.00 | 0.00 | 80 | 1012.6 |
| 20260906062738 | 27 | 134 | 12.9 | 17.7 | 0.00 | 0.00 | 0.00 | 80 | 1015.5 |
| 20260906062249 | 27 | 119 | 9.7 | 16.1 | 0.00 | 0.00 | 0.00 | 80 | 1015.5 |
| 20260906061727 | 27 | 128 | 9.7 | 16.1 | 0.00 | 0.00 | 0.00 | 80 | 1015.5 |
| 20260906061507 | 26 | 157 | 8.0 | 16.1 | 0.00 | 0.00 | 0.00 | 80 | 1012.6 |
| 20260906061259 | 27 | 139 | 9.7 | 16.1 | 0.00 | 0.00 | 0.00 | 79 | 1015.5 |
| 20260906060749 | 27 | 119 | 9.7 | 17.7 | 0.00 | 0.00 | 0.00 | 79 | 1015.4 |
| 20260906060230 | 27 | 121 | 11.3 | 17.7 | 0.00 | 0.00 | 0.00 | 79 | 1015.5 |
| 20260906060042 | 27 | 128 | 11.3 | 20.9 | 0.00 | 0.00 | 0.00 | 79 | 1012.6 |
| 20260906055739 | 27 | 138 | 11.3 | 20.9 | 0.00 | 0.00 | 0.00 | 79 | 1015.4 |
| 20260906055222 | 27 | 107 | 9.7 | 20.9 | 0.00 | 0.00 | 0.00 | 79 | 1015.4 |
| 20260906054753 | 27 | 128 | 12.9 | 20.9 | 0.00 | 0.00 | 0.00 | 79 | 1015.5 |
| 20260906054526 | 27 | 123 | 11.3 | 20.9 | 0.00 | 0.00 | 0.00 | 79 | 1012.5 |
| 20260906054242 | 27 | 88 | 14.5 | 20.9 | 0.00 | 0.00 | 0.00 | 79 | 1015.3 |
| 20260906053724 | 27 | 123 | 14.5 | 20.9 | 0.00 | 0.00 | 0.00 | 79 | 1015.4 |
| 20260906053234 | 27 | 119 | 14.5 | 20.9 | 0.00 | 0.00 | 0.00 | 79 | 1015.4 |
| 20260906053031 | 27 | 110 | 12.9 | 20.9 | 0.00 | 0.00 | 0.00 | 79 | 1012.5 |
| 20260906052747 | 27 | 126 | 12.9 | 17.7 | 0.00 | 0.00 | 0.00 | 79 | 1015.4 |
| 20260906052231 | 27 | 103 | 12.9 | 17.7 | 0.00 | 0.00 | 0.00 | 78 | 1015.5 |
| 20260906051744 | 27 | 105 | 11.3 | 16.1 | 0.00 | 0.00 | 0.00 | 78 | 1015.5 |
| 20260906051525 | 27 | 105 | 12.9 | 16.1 | 0.00 | 0.00 | 0.00 | 78 | 1012.6 |
| 20260906051227 | 27 | 109 | 12.9 | 16.1 | 0.00 | 0.00 | 0.00 | 78 | 1015.5 |
| 20260906050739 | 27 | 121 | 11.3 | 16.1 | 0.00 | 0.00 | 0.00 | 78 | 1015.5 |
| 20260906050309 | 27 | 111 | 11.3 | 16.1 | 0.00 | 0.00 | 0.00 | 78 | 1015.5 |
| 20260906050051 | 27 | 115 | 9.7 | 16.1 | 0.00 | 0.00 | 0.00 | 78 | 1012.6 |
| 20260906045730 | 27 | 115 | 9.7 | 16.1 | 0.00 | 0.00 | 0.00 | 77 | 1015.5 |
| 20260906045242 | 28 | 108 | 11.3 | 17.7 | 0.00 | 0.00 | 0.00 | 77 | 1015.5 |
| 20260906044727 | 28 | 111 | 9.7 | 17.7 | 0.00 | 0.00 | 0.00 | 77 | 1015.5 |
| 20260906044557 | 27 | 80 | 11.3 | 17.7 | 0.00 | 0.00 | 0.00 | 77 | 1012.5 |
| 20260906044238 | 28 | 88 | 12.9 | 17.7 | 0.00 | 0.00 | 0.00 | 77 | 1015.4 |
| 20260906043809 | 28 | 96 | 12.9 | 19.3 | 0.00 | 0.00 | 0.00 | 77 | 1015.4 |
| 20260906043230 | 28 | 95 | 12.9 | 17.7 | 0.00 | 0.00 | 0.00 | 77 | 1015.4 |
| 20260906043039 | 28 | 99 | 12.9 | 17.7 | 0.00 | 0.00 | 0.00 | 76 | 1012.6 |
| 20260906042737 | 28 | 101 | 12.9 | 16.1 | 0.00 | 0.00 | 0.00 | 76 | 1015.5 |
| 20260906042221 | 28 | 97 | 9.7 | 16.1 | 0.00 | 0.00 | 0.00 | 76 | 1015.5 |
| 20260906041735 | 28 | 115 | 11.3 | 16.1 | 0.00 | 0.00 | 0.00 | 76 | 1015.5 |
| 20260906041554 | 28 | 116 | 11.3 | 16.1 | 0.00 | 0.00 | 0.00 | 76 | 1012.5 |
| 20260906041248 | 28 | 103 | 11.3 | 17.7 | 0.00 | 0.00 | 0.00 | 76 | 1015.5 |
| 20260906040759 | 28 | 113 | 11.3 | 17.7 | 0.00 | 0.00 | 0.00 | 75 | 1015.5 |
| 20260906040250 | 28 | 104 | 14.5 | 17.7 | 0.00 | 0.00 | 0.00 | 75 | 1015.5 |
| 20260906040022 | 28 | 91 | 11.3 | 19.3 | 0.00 | 0.00 | 0.00 | 75 | 1012.5 |
| 20260906035731 | 28 | 85 | 12.9 | 19.3 | 0.00 | 0.00 | 0.00 | 75 | 1015.5 |
| 20260906035240 | 28 | 95 | 12.9 | 19.3 | 0.00 | 0.00 | 0.00 | 75 | 1015.4 |
| 20260906034725 | 28 | 89 | 12.9 | 19.3 | 0.00 | 0.00 | 0.00 | 75 | 1015.5 |
| 20260906034532 | 28 | 110 | 11.3 | 17.7 | 0.00 | 0.00 | 0.00 | 75 | 1012.5 |
| 20260906034238 | 28 | 99 | 12.9 | 17.7 | 0.00 | 0.00 | 0.00 | 75 | 1015.4 |
| 20260906033752 | 28 | 101 | 12.9 | 19.3 | 0.00 | 0.00 | 0.00 | 75 | 1015.4 |
| 20260906033244 | 28 | 93 | 12.9 | 19.3 | 0.00 | 0.00 | 0.00 | 75 | 1015.3 |
| 20260906033055 | 28 | 82 | 11.3 | 19.3 | 0.00 | 0.00 | 0.00 | 75 | 1012.4 |
| 20260906032727 | 29 | 94 | 11.3 | 16.1 | 0.00 | 0.00 | 0.00 | 75 | 1015.3 |
| 20260906032240 | 29 | 98 | 11.3 | 16.1 | 0.00 | 0.00 | 0.00 | 75 | 1015.3 |
| 20260906031724 | 29 | 69 | 11.3 | 20.9 | 0.00 | 0.00 | 0.00 | 74 | 1015.2 |
| 20260906031505 | 28 | 111 | 12.9 | 20.9 | 0.00 | 0.00 | 0.00 | 74 | 1012.3 |
| 20260906031236 | 29 | 88 | 12.9 | 19.3 | 0.00 | 0.00 | 0.00 | 74 | 1015.1 |
| 20260906030745 | 29 | 90 | 11.3 | 17.7 | 0.00 | 0.00 | 0.00 | 74 | 1015.0 |
| 20260906030229 | 29 | 93 | 12.9 | 20.9 | 0.00 | 0.00 | 0.00 | 74 | 1014.8 |
| 20260906030015 | 29 | 107 | 12.9 | 20.9 | 0.00 | 0.00 | 0.00 | 74 | 1011.8 |
| 20260906025742 | 29 | 100 | 14.5 | 24.1 | 0.00 | 0.00 | 0.00 | 74 | 1014.7 |
| 20260906025227 | 29 | 117 | 11.3 | 24.1 | 0.00 | 0.00 | 0.00 | 74 | 1014.7 |
| 20260906024740 | 29 | 80 | 12.9 | 17.7 | 0.00 | 0.00 | 0.00 | 74 | 1014.7 |
| 20260906024522 | 29 | 105 | 11.3 | 19.3 | 0.00 | 0.00 | 0.00 | 74 | 1011.7 |
| 20260906024255 | 29 | 74 | 12.9 | 19.3 | 0.00 | 0.00 | 0.00 | 74 | 1014.7 |
| 20260906023741 | 30 | 90 | 12.9 | 19.3 | 0.00 | 0.00 | 0.00 | 74 | 1014.5 |
| 20260906023226 | 30 | 94 | 11.3 | 17.7 | 0.00 | 0.00 | 0.00 | 74 | 1014.6 |
| 20260906023006 | 29 | 92 | 12.9 | 17.7 | 0.00 | 0.00 | 0.00 | 74 | 1011.6 |
| 20260906022738 | 30 | 79 | 11.3 | 17.7 | 0.00 | 0.00 | 0.00 | 74 | 1014.6 |
| 20260906022222 | 30 | 78 | 9.7 | 16.1 | 0.00 | 0.00 | 0.00 | 73 | 1014.6 |
| 20260906021735 | 30 | 57 | 11.3 | 19.3 | 0.00 | 0.00 | 0.00 | 73 | 1014.4 |
| 20260906021510 | 30 | 82 | 12.9 | 19.3 | 0.00 | 0.00 | 0.00 | 73 | 1011.4 |
| 20260906021248 | 30 | 77 | 12.9 | 19.3 | 0.00 | 0.00 | 0.00 | 73 | 1014.4 |
| 20260906020728 | 30 | 71 | 11.3 | 17.7 | 0.00 | 0.00 | 0.00 | 72 | 1014.2 |
| 20260906020239 | 30 | 97 | 11.3 | 19.3 | 0.00 | 0.00 | 0.00 | 72 | 1014.0 |
| 20260906020015 | 30 | 80 | 11.3 | 19.3 | 0.00 | 0.00 | 0.00 | 72 | 1011.0 |
| 20260906015747 | 30 | 105 | 11.3 | 19.3 | 0.00 | 0.00 | 0.00 | 72 | 1013.9 |
| 20260906015238 | 30 | 88 | 9.7 | 19.3 | 0.00 | 0.00 | 0.00 | 72 | 1013.9 |
| 20260906014721 | 30 | 93 | 12.9 | 19.3 | 0.00 | 0.00 | 0.00 | 71 | 1014.0 |
| 20260906014609 | 30 | 92 | 11.3 | 19.3 | 0.00 | 0.00 | 0.00 | 71 | 1010.8 |
| 20260906014256 | 30 | 91 | 12.9 | 19.3 | 0.00 | 0.00 | 0.00 | 71 | 1013.9 |
| 20260906013747 | 30 | 76 | 11.3 | 17.7 | 0.00 | 0.00 | 0.00 | 71 | 1013.8 |
| 20260906013226 | 31 | 96 | 11.3 | 17.7 | 0.00 | 0.00 | 0.00 | 71 | 1013.8 |
| 20260906013043 | 30 | 82 | 9.7 | 17.7 | 0.00 | 0.00 | 0.00 | 71 | 1010.7 |
| 20260906012737 | 31 | 96 | 8.0 | 17.7 | 0.00 | 0.00 | 0.00 | 71 | 1013.7 |
| 20260906012245 | 31 | 82 | 9.7 | 17.7 | 0.00 | 0.00 | 0.00 | 70 | 1013.7 |
| 20260906011729 | 31 | 67 | 8.0 | 16.1 | 0.00 | 0.00 | 0.00 | 70 | 1013.7 |
| 20260906011542 | 31 | 90 | 9.7 | 16.1 | 0.00 | 0.00 | 0.00 | 70 | 1010.6 |
| 20260906011224 | 31 | 91 | 9.7 | 14.5 | 0.00 | 0.00 | 0.00 | 70 | 1013.5 |
| 20260906010735 | 31 | 64 | 8.0 | 16.1 | 0.00 | 0.00 | 0.00 | 70 | 1013.5 |
| 20260906010248 | 31 | 80 | 9.7 | 16.1 | 0.00 | 0.00 | 0.00 | 69 | 1013.4 |
| 20260906010024 | 31 | 80 | 9.7 | 14.5 | 0.00 | 0.00 | 0.00 | 69 | 1010.4 |
| 20260906005741 | 32 | 68 | 8.0 | 14.5 | 0.00 | 0.00 | 0.00 | 68 | 1013.4 |
| 20260906005256 | 32 | 78 | 9.7 | 16.1 | 0.00 | 0.00 | 0.00 | 67 | 1013.4 |
| 20260906004745 | 32 | 68 | 9.7 | 16.1 | 0.00 | 0.00 | 0.00 | 67 | 1013.4 |
| 20260906004607 | 32 | 97 | 11.3 | 17.7 | 0.00 | 0.00 | 0.00 | 67 | 1010.4 |
| 20260906004509 | 32 | 87 | 11.3 | 17.7 | 0.00 | 0.00 | 0.00 | 67 | 1010.3 |
| 20260906004226 | 32 | 90 | 11.3 | 17.7 | 0.00 | 0.00 | 0.00 | 66 | 1013.3 |
| 20260906003758 | 32 | 112 | 12.9 | 19.3 | 0.00 | 0.00 | 0.00 | 66 | 1013.3 |
| 20260906003221 | 32 | 126 | 12.9 | 19.3 | 0.00 | 0.00 | 0.00 | 65 | 1013.4 |
| 20260906003049 | 32 | 121 | 12.9 | 17.7 | 0.00 | 0.00 | 0.00 | 65 | 1010.3 |
| 20260906002755 | 32 | 91 | 11.3 | 17.7 | 0.00 | 0.00 | 0.00 | 65 | 1013.3 |
| 20260906002228 | 33 | 126 | 9.7 | 19.3 | 0.00 | 0.00 | 0.00 | 64 | 1013.2 |
| 20260906001742 | 33 | 116 | 9.7 | 19.3 | 0.00 | 0.00 | 0.00 | 64 | 1013.2 |
| 20260906001520 | 33 | 118 | 12.9 | 19.3 | 0.00 | 0.00 | 0.00 | 64 | 1010.2 |
| 20260906001227 | 33 | 132 | 12.9 | 17.7 | 0.00 | 0.00 | 0.00 | 64 | 1013.3 |
| 20260906000736 | 33 | 107 | 12.9 | 17.7 | 0.00 | 0.00 | 0.00 | 63 | 1013.3 |
| 20260906000248 | 33 | 113 | 12.9 | 16.1 | 0.00 | 0.00 | 0.00 | 63 | 1013.2 |
| 20260906000007 | 33 | 109 | 11.3 | 16.1 | 0.00 | 0.00 | 0.00 | 63 | 1010.3 |
| 20260905235738 | 33 | 119 | 11.3 | 16.1 | 0.00 | 0.00 | 0.00 | 63 | 1013.3 |
| 20260905235224 | 33 | 133 | 8.0 | 19.3 | 0.00 | 0.00 | 0.00 | 62 | 1013.3 |
| 20260905234737 | 33 | 117 | 9.7 | 19.3 | 0.00 | 0.00 | 0.00 | 62 | 1013.3 |
| 20260905234508 | 33 | 130 | 12.9 | 19.3 | 0.00 | 0.00 | 0.00 | 61 | 1010.3 |
| 20260905234310 | 33 | 111 | 9.7 | 19.3 | 0.00 | 0.00 | 0.00 | 62 | 1013.3 |
| 20260905233733 | 34 | 105 | 11.3 | 19.3 | 0.00 | 0.00 | 0.00 | 62 | 1013.3 |
| 20260905233242 | 34 | 149 | 12.9 | 24.1 | 0.00 | 0.00 | 0.00 | 61 | 1013.2 |
| 20260905233049 | 33 | 99 | 11.3 | 24.1 | 0.00 | 0.00 | 0.00 | 60 | 1010.2 |
| 20260905232727 | 34 | 135 | 16.1 | 24.1 | 0.00 | 0.00 | 0.00 | 60 | 1013.1 |
| 20260905232240 | 34 | 104 | 12.9 | 24.1 | 0.00 | 0.00 | 0.00 | 61 | 1013.2 |
| 20260905231723 | 34 | 134 | 14.5 | 22.5 | 0.00 | 0.00 | 0.00 | 61 | 1013.2 |
| 20260905231556 | 34 | 96 | 14.5 | 22.5 | 0.00 | 0.00 | 0.00 | 60 | 1010.1 |
| 20260905231238 | 34 | 136 | 11.3 | 24.1 | 0.00 | 0.00 | 0.00 | 61 | 1013.2 |
| 20260905230722 | 34 | 132 | 14.5 | 24.1 | 0.00 | 0.00 | 0.00 | 59 | 1013.1 |
| 20260905230237 | 35 | 82 | 16.1 | 24.1 | 0.00 | 0.00 | 0.00 | 59 | 1013.1 |
| 20260905230014 | 34 | 97 | 16.1 | 22.5 | 0.00 | 0.00 | 0.00 | 59 | 1010.1 |
| 20260905225747 | 35 | 130 | 16.1 | 25.7 | 0.00 | 0.00 | 0.00 | 59 | 1013.0 |
| 20260905225230 | 35 | 138 | 16.1 | 25.7 | 0.00 | 0.00 | 0.00 | 59 | 1013.0 |
| 20260905224739 | 35 | 130 | 16.1 | 22.5 | 0.00 | 0.00 | 0.00 | 58 | 1013.0 |
| 20260905224523 | 34 | 147 | 14.5 | 22.5 | 0.00 | 0.00 | 0.00 | 59 | 1009.9 |
| 20260905224224 | 35 | 111 | 16.1 | 25.7 | 0.00 | 0.00 | 0.00 | 58 | 1012.9 |
| 20260905223735 | 35 | 137 | 16.1 | 25.7 | 0.00 | 0.00 | 0.00 | 58 | 1012.9 |
| 20260905223246 | 35 | 155 | 14.5 | 24.1 | 0.00 | 0.00 | 0.00 | 58 | 1012.9 |
| 20260905223058 | 34 | 138 | 14.5 | 24.1 | 0.00 | 0.00 | 0.00 | 59 | 1009.8 |
| 20260905222738 | 35 | 123 | 14.5 | 25.7 | 0.00 | 0.00 | 0.00 | 59 | 1012.8 |
| 20260905222247 | 35 | 114 | 19.3 | 29.0 | 0.00 | 0.00 | 0.00 | 58 | 1012.8 |
| 20260905221754 | 35 | 134 | 22.5 | 29.0 | 0.00 | 0.00 | 0.00 | 58 | 1012.7 |
| 20260905221516 | 34 | 139 | 16.1 | 27.4 | 0.00 | 0.00 | 0.00 | 59 | 1009.7 |
| 20260905221247 | 35 | 88 | 14.5 | 30.6 | 0.00 | 0.00 | 0.00 | 58 | 1012.8 |
| 20260905220731 | 35 | 134 | 16.1 | 30.6 | 0.00 | 0.00 | 0.00 | 57 | 1012.8 |
| 20260905220244 | 35 | 111 | 16.1 | 25.7 | 0.00 | 0.00 | 0.00 | 58 | 1012.8 |
| 20260905220050 | 35 | 137 | 16.1 | 25.7 | 0.00 | 0.00 | 0.00 | 58 | 1009.9 |
| 20260905215757 | 35 | 109 | 19.3 | 25.7 | 0.00 | 0.00 | 0.00 | 57 | 1012.9 |
| 20260905215221 | 35 | 113 | 17.7 | 25.7 | 0.00 | 0.00 | 0.00 | 57 | 1012.9 |
| 20260905214731 | 35 | 143 | 16.1 | 24.1 | 0.00 | 0.00 | 0.00 | 58 | 1012.9 |
| 20260905214531 | 34 | 127 | 16.1 | 24.1 | 0.00 | 0.00 | 0.00 | 57 | 1009.9 |
| 20260905214300 | 35 | 143 | 16.1 | 24.1 | 0.00 | 0.00 | 0.00 | 58 | 1013.0 |
| 20260905213810 | 34 | 133 | 14.5 | 24.1 | 0.00 | 0.00 | 0.00 | 57 | 1013.0 |
| 20260905213233 | 34 | 117 | 16.1 | 25.7 | 0.00 | 0.00 | 0.00 | 57 | 1013.2 |
| 20260905213050 | 34 | 92 | 16.1 | 25.7 | 0.00 | 0.00 | 0.00 | 57 | 1010.3 |
| 20260905212806 | 34 | 105 | 19.3 | 27.4 | 0.00 | 0.00 | 0.00 | 56 | 1013.3 |
| 20260905212227 | 34 | 92 | 12.9 | 27.4 | 0.00 | 0.00 | 0.00 | 57 | 1013.4 |
| 20260905211759 | 34 | 77 | 16.1 | 25.7 | 0.00 | 0.00 | 0.00 | 56 | 1013.5 |
| 20260905211503 | 33 | 119 | 12.9 | 25.7 | 0.00 | 0.00 | 0.00 | 57 | 1010.6 |
| 20260905211247 | 34 | 136 | 16.1 | 25.7 | 0.00 | 0.00 | 0.00 | 57 | 1013.6 |
| 20260905210729 | 34 | 127 | 17.7 | 24.1 | 0.00 | 0.00 | 0.00 | 57 | 1013.6 |
| 20260905210301 | 34 | 78 | 14.5 | 25.7 | 0.00 | 0.00 | 0.00 | 56 | 1013.7 |
| 20260905210043 | 33 | 69 | 12.9 | 25.7 | 0.00 | 0.00 | 0.00 | 56 | 1010.7 |
| 20260905205751 | 34 | 123 | 16.1 | 25.7 | 0.00 | 0.00 | 0.00 | 56 | 1013.9 |
| 20260905205242 | 34 | 104 | 17.7 | 25.7 | 0.00 | 0.00 | 0.00 | 56 | 1014.0 |
| 20260905204733 | 34 | 140 | 14.5 | 27.4 | 0.00 | 0.00 | 0.00 | 56 | 1014.0 |
| 20260905204507 | 33 | 87 | 17.7 | 29.0 | 0.00 | 0.00 | 0.00 | 55 | 1011.0 |
| 20260905204242 | 34 | 101 | 17.7 | 29.0 | 0.00 | 0.00 | 0.00 | 55 | 1014.2 |
| 20260905203724 | 34 | 63 | 19.3 | 29.0 | 0.00 | 0.00 | 0.00 | 56 | 1014.2 |
| 20260905203235 | 34 | 87 | 19.3 | 29.0 | 0.00 | 0.00 | 0.00 | 53 | 1014.4 |
| 20260905203010 | 33 | 101 | 16.1 | 29.0 | 0.00 | 0.00 | 0.00 | 54 | 1011.4 |
| 20260905202746 | 33 | 99 | 17.7 | 27.4 | 0.00 | 0.00 | 0.00 | 55 | 1014.4 |
| 20260905202230 | 33 | 89 | 19.3 | 30.6 | 0.00 | 0.00 | 0.00 | 55 | 1014.7 |
| 20260905201742 | 34 | 92 | 22.5 | 30.6 | 0.00 | 0.00 | 0.00 | 53 | 1014.9 |
| 20260905201554 | 33 | 90 | 20.9 | 30.6 | 0.00 | 0.00 | 0.00 | 54 | 1011.8 |
| 20260905201233 | 34 | 81 | 19.3 | 27.4 | 0.00 | 0.00 | 0.00 | 56 | 1015.0 |
| 20260905200743 | 34 | 53 | 12.9 | 29.0 | 0.00 | 0.00 | 0.00 | 55 | 1015.2 |
| 20260905200222 | 34 | 50 | 19.3 | 27.4 | 0.00 | 0.00 | 0.00 | 57 | 1015.2 |
| 20260905200105 | 34 | 50 | 17.7 | 27.4 | 0.00 | 0.00 | 0.00 | 57 | 1012.1 |
| 20260905195734 | 34 | 59 | 19.3 | 29.0 | 0.00 | 0.00 | 0.00 | 58 | 1015.2 |
| 20260905195247 | 34 | 81 | 14.5 | 29.0 | 0.00 | 0.00 | 0.00 | 58 | 1015.2 |
| 20260905194732 | 33 | 55 | 16.1 | 32.2 | 0.00 | 0.00 | 0.00 | 58 | 1015.2 |
| 20260905194507 | 33 | 87 | 19.3 | 32.2 | 0.00 | 0.00 | 0.00 | 58 | 1012.1 |
| 20260905194245 | 33 | 108 | 22.5 | 32.2 | 0.00 | 0.00 | 0.00 | 58 | 1015.1 |
| 20260905193735 | 33 | 98 | 16.1 | 27.4 | 0.00 | 0.00 | 0.00 | 61 | 1015.3 |
| 20260905193307 | 33 | 112 | 17.7 | 29.0 | 0.00 | 0.00 | 0.00 | 61 | 1015.4 |
| 20260905193029 | 33 | 76 | 14.5 | 29.0 | 0.00 | 0.00 | 0.00 | 61 | 1012.2 |
| 20260905192726 | 33 | 82 | 20.9 | 32.2 | 0.00 | 0.00 | 0.00 | 60 | 1015.4 |
| 20260905192257 | 33 | 88 | 19.3 | 33.8 | 0.00 | 0.00 | 0.00 | 61 | 1015.5 |
| 20260905191720 | 33 | 39 | 20.9 | 33.8 | 0.00 | 0.00 | 0.00 | 61 | 1015.5 |
| 20260905191520 | 33 | 92 | 19.3 | 33.8 | 0.00 | 0.00 | 0.00 | 62 | 1012.5 |
| 20260905191234 | 33 | 48 | 20.9 | 33.8 | 0.00 | 0.00 | 0.00 | 61 | 1015.7 |
| 20260905190744 | 33 | 108 | 24.1 | 33.8 | 0.00 | 0.00 | 0.00 | 61 | 1015.8 |
| 20260905190228 | 33 | 105 | 20.9 | 32.2 | 0.00 | 0.00 | 0.00 | 61 | 1015.9 |
| 20260905190034 | 33 | 51 | 19.3 | 33.8 | 0.00 | 0.00 | 0.00 | 61 | 1012.9 |
| 20260905185739 | 33 | 89 | 20.9 | 35.4 | 0.00 | 0.00 | 0.00 | 62 | 1016.1 |
| 20260905185223 | 33 | 39 | 22.5 | 35.4 | 0.00 | 0.00 | 0.00 | 60 | 1016.2 |
| 20260905184730 | 33 | 95 | 22.5 | 35.4 | 0.00 | 0.00 | 0.00 | 61 | 1016.4 |
| 20260905184528 | 32 | 56 | 19.3 | 32.2 | 0.00 | 0.00 | 0.00 | 62 | 1013.2 |
| 20260905184241 | 32 | 70 | 20.9 | 32.2 | 0.00 | 0.00 | 0.00 | 62 | 1016.4 |
| 20260905183723 | 32 | 75 | 24.1 | 35.4 | 0.00 | 0.00 | 0.00 | 63 | 1016.6 |
| 20260905183235 | 32 | 33 | 20.9 | 37.0 | 0.00 | 0.00 | 0.00 | 63 | 1016.7 |
| 20260905183034 | 32 | 17 | 20.9 | 37.0 | 0.00 | 0.00 | 0.00 | 63 | 1013.6 |
| 20260905182748 | 32 | 5 | 20.9 | 37.0 | 0.00 | 0.00 | 0.00 | 62 | 1016.8 |
| 20260905182230 | 32 | 27 | 25.7 | 40.2 | 0.00 | 0.00 | 0.00 | 62 | 1016.6 |
| 20260905181742 | 33 | 40 | 24.1 | 40.2 | 0.00 | 0.00 | 0.00 | 62 | 1016.7 |
| 20260905181536 | 32 | 22 | 20.9 | 40.2 | 0.00 | 0.00 | 0.00 | 61 | 1013.6 |
| 20260905181227 | 33 | 30 | 20.9 | 40.2 | 0.00 | 0.00 | 0.00 | 61 | 1016.6 |
| 20260905180733 | 33 | 44 | 17.7 | 32.2 | 0.00 | 0.00 | 0.00 | 63 | 1016.5 |
| 20260905180247 | 33 | 13 | 20.9 | 37.0 | 0.00 | 0.00 | 0.00 | 62 | 1016.4 |
| 20260905180038 | 33 | 43 | 22.5 | 37.0 | 0.00 | 0.00 | 0.00 | 62 | 1013.3 |
| 20260905175730 | 33 | 360 | 24.1 | 37.0 | 0.00 | 0.00 | 0.00 | 60 | 1016.5 |
| 20260905175241 | 33 | 38 | 20.9 | 37.0 | 0.00 | 0.00 | 0.00 | 60 | 1016.4 |
| 20260905174726 | 33 | 5 | 16.1 | 30.6 | 0.00 | 0.00 | 0.00 | 61 | 1016.4 |
| 20260905174543 | 33 | 50 | 14.5 | 30.6 | 0.00 | 0.00 | 0.00 | 61 | 1013.3 |
| 20260905174301 | 33 | 5 | 22.5 | 30.6 | 0.00 | 0.00 | 0.00 | 60 | 1016.3 |
| 20260905173722 | 33 | 28 | 14.5 | 24.1 | 0.00 | 0.00 | 0.00 | 60 | 1016.4 |
| 20260905173229 | 33 | 34 | 19.3 | 27.4 | 0.00 | 0.00 | 0.00 | 61 | 1016.4 |
| 20260905173023 | 33 | 16 | 14.5 | 27.4 | 0.00 | 0.00 | 0.00 | 61 | 1013.3 |
| 20260905172802 | 33 | 34 | 19.3 | 27.4 | 0.00 | 0.00 | 0.00 | 59 | 1016.4 |
| 20260905172225 | 33 | 55 | 16.1 | 25.7 | 0.00 | 0.00 | 0.00 | 60 | 1016.5 |
| 20260905171737 | 33 | 355 | 19.3 | 25.7 | 0.00 | 0.00 | 0.00 | 59 | 1016.4 |
| 20260905171513 | 33 | 12 | 16.1 | 25.7 | 0.00 | 0.00 | 0.00 | 57 | 1013.4 |
| 20260905171222 | 33 | 31 | 16.1 | 25.7 | 0.00 | 0.00 | 0.00 | 56 | 1016.5 |
| 20260905170733 | 33 | 11 | 16.1 | 27.4 | 0.00 | 0.00 | 0.00 | 57 | 1016.6 |
| 20260905170305 | 34 | 355 | 20.9 | 27.4 | 0.00 | 0.00 | 0.00 | 57 | 1016.5 |
| 20260905170052 | 33 | 348 | 17.7 | 27.4 | 0.00 | 0.00 | 0.00 | 57 | 1013.4 |
| 20260905165724 | 34 | 355 | 17.7 | 27.4 | 0.00 | 0.00 | 0.00 | 56 | 1016.6 |
| 20260905165237 | 34 | 346 | 19.3 | 27.4 | 0.00 | 0.00 | 0.00 | 57 | 1016.6 |
| 20260905164721 | 34 | 43 | 17.7 | 27.4 | 0.00 | 0.00 | 0.00 | 57 | 1016.5 |
| 20260905164553 | 34 | 5 | 16.1 | 22.5 | 0.00 | 0.00 | 0.00 | 58 | 1013.4 |
| 20260905164234 | 34 | 27 | 11.3 | 19.3 | 0.00 | 0.00 | 0.00 | 61 | 1016.6 |
| 20260905163743 | 34 | 32 | 14.5 | 19.3 | 0.00 | 0.00 | 0.00 | 61 | 1016.7 |
| 20260905163234 | 34 | 37 | 8.0 | 14.5 | 0.00 | 0.00 | 0.00 | 60 | 1016.5 |
| 20260905163037 | 33 | 355 | 8.0 | 16.1 | 0.00 | 0.00 | 0.00 | 57 | 1013.4 |
| 20260905162744 | 33 | 23 | 8.0 | 16.1 | 0.00 | 0.00 | 0.00 | 59 | 1016.5 |
| 20260905162227 | 33 | 27 | 6.4 | 16.1 | 0.00 | 0.00 | 0.00 | 58 | 1016.5 |
| 20260905161735 | 33 | 350 | 11.3 | 14.5 | 0.00 | 0.00 | 0.00 | 58 | 1016.5 |
| 20260905161546 | 33 | 355 | 9.7 | 14.5 | 0.00 | 0.00 | 0.00 | 60 | 1013.5 |
| 20260905161248 | 33 | 19 | 9.7 | 12.9 | 0.00 | 0.00 | 0.00 | 60 | 1016.4 |
| 20260905160730 | 33 | 360 | 6.4 | 12.9 | 0.00 | 0.00 | 0.00 | 60 | 1016.3 |
| 20260905160242 | 33 | 360 | 8.0 | 9.7 | 0.00 | 0.00 | 0.00 | 60 | 1016.3 |
| 20260905160049 | 33 | 10 | 6.4 | 9.7 | 0.00 | 0.00 | 0.00 | 61 | 1013.2 |
| 20260905155727 | 33 | 351 | 6.4 | 11.3 | 0.00 | 0.00 | 0.00 | 60 | 1016.2 |
| 20260905155238 | 33 | 11 | 3.2 | 8.0 | 0.00 | 0.00 | 0.00 | 61 | 1016.1 |
| 20260905154722 | 33 | 19 | 4.8 | 9.7 | 0.00 | 0.00 | 0.00 | 60 | 1016.1 |
| 20260905154555 | 33 | 24 | 4.8 | 9.7 | 0.00 | 0.00 | 0.00 | 59 | 1013.1 |
| 20260905154235 | 33 | 355 | 6.4 | 9.7 | 0.00 | 0.00 | 0.00 | 60 | 1016.1 |
| 20260905153742 | 33 | 155 | 4.8 | 8.0 | 0.00 | 0.00 | 0.00 | 60 | 1016.3 |
| 20260905153225 | 33 | 155 | 3.2 | 4.8 | 0.00 | 0.00 | 0.00 | 57 | 1016.1 |
| 20260905153055 | 33 | 155 | 0.0 | 8.0 | 0.00 | 0.00 | 0.00 | 57 | 1013.0 |
| 20260905152738 | 33 | 155 | 1.6 | 9.7 | 0.00 | 0.00 | 0.00 | 59 | 1016.0 |
| 20260905152221 | 33 | 155 | 4.8 | 9.7 | 0.00 | 0.00 | 0.00 | 60 | 1016.0 |
| 20260905151732 | 33 | 155 | 3.2 | 8.0 | 0.00 | 0.00 | 0.00 | 61 | 1016.0 |
| 20260905151555 | 32 | 155 | 3.2 | 8.0 | 0.00 | 0.00 | 0.00 | 61 | 1012.9 |
| 20260905151245 | 32 | 155 | 3.2 | 8.0 | 0.00 | 0.00 | 0.00 | 60 | 1016.1 |
| 20260905150755 | 32 | 155 | 1.6 | 4.8 | 0.00 | 0.00 | 0.00 | 61 | 1016.1 |
| 20260905150243 | 32 | 155 | 1.6 | 4.8 | 0.00 | 0.00 | 0.00 | 63 | 1016.0 |
| 20260905145736 | 32 | 155 | 1.6 | 4.8 | 0.00 | 0.00 | 0.00 | 61 | 1015.9 |
| 20260905145246 | 32 | 155 | 1.6 | 8.0 | 0.00 | 0.00 | 0.00 | 60 | 1015.6 |
| 20260905144728 | 32 | 155 | 3.2 | 8.0 | 0.00 | 0.00 | 0.00 | 62 | 1015.5 |
| 20260905144557 | 31 | 155 | 4.8 | 11.3 | 0.00 | 0.00 | 0.00 | 61 | 1012.4 |
| 20260905144242 | 31 | 139 | 3.2 | 11.3 | 0.00 | 0.00 | 0.00 | 64 | 1015.4 |
| 20260905143751 | 31 | 153 | 6.4 | 12.9 | 0.00 | 0.00 | 0.00 | 65 | 1015.4 |
| 20260905143233 | 31 | 134 | 4.8 | 12.9 | 0.00 | 0.00 | 0.00 | 66 | 1015.3 |
| 20260905143003 | 30 | 134 | 8.0 | 12.9 | 0.00 | 0.00 | 0.00 | 65 | 1012.2 |
| 20260905142741 | 31 | 148 | 6.4 | 16.1 | 0.00 | 0.00 | 0.00 | 66 | 1015.1 |
| 20260905142223 | 30 | 169 | 8.0 | 16.1 | 0.00 | 0.00 | 0.00 | 66 | 1015.0 |
| 20260905141734 | 30 | 145 | 8.0 | 14.5 | 0.00 | 0.00 | 0.00 | 66 | 1015.0 |
| 20260905141509 | 30 | 157 | 8.0 | 14.5 | 0.00 | 0.00 | 0.00 | 67 | 1012.1 |
| 20260905141307 | 30 | 149 | 8.0 | 14.5 | 0.00 | 0.00 | 0.00 | 68 | 1015.0 |
| 20260905140726 | 30 | 134 | 8.0 | 12.9 | 0.00 | 0.00 | 0.00 | 68 | 1015.0 |
| 20260905140236 | 29 | 112 | 8.0 | 12.9 | 0.00 | 0.00 | 0.00 | 70 | 1015.1 |
| 20260905140038 | 28 | 146 | 4.8 | 8.0 | 0.00 | 0.00 | 0.00 | 71 | 1012.2 |
| 20260905135748 | 29 | 146 | 4.8 | 6.4 | 0.00 | 0.00 | 0.00 | 71 | 1015.2 |
| 20260905135232 | 28 | 146 | 4.8 | 8.0 | 0.00 | 0.00 | 0.00 | 72 | 1015.3 |
| 20260905134739 | 28 | 146 | 4.8 | 8.0 | 0.00 | 0.00 | 0.00 | 73 | 1015.3 |
| 20260905134540 | 27 | 146 | 4.8 | 8.0 | 0.00 | 0.00 | 0.00 | 73 | 1012.3 |
| 20260905134251 | 27 | 146 | 4.8 | 6.4 | 0.00 | 0.00 | 0.00 | 74 | 1015.2 |
| 20260905133734 | 27 | 146 | 3.2 | 6.4 | 0.00 | 0.00 | 0.00 | 77 | 1015.2 |
| 20260905133244 | 27 | 146 | 3.2 | 6.4 | 0.00 | 0.00 | 0.00 | 78 | 1015.1 |
| 20260905133036 | 26 | 146 | 3.2 | 6.4 | 0.00 | 0.00 | 0.00 | 78 | 1012.1 |
| 20260905132726 | 26 | 146 | 4.8 | 6.4 | 0.00 | 0.00 | 0.00 | 78 | 1015.0 |
| 20260905132237 | 26 | 146 | 3.2 | 8.0 | 0.00 | 0.00 | 0.00 | 80 | 1014.8 |
| 20260905131723 | 26 | 146 | 4.8 | 8.0 | 0.00 | 0.00 | 0.00 | 80 | 1014.7 |
| 20260905131547 | 26 | 146 | 4.8 | 8.0 | 0.00 | 0.00 | 0.00 | 80 | 1011.9 |
| 20260905131236 | 26 | 146 | 4.8 | 8.0 | 0.00 | 0.00 | 0.00 | 80 | 1014.6 |
| 20260905130741 | 25 | 146 | 4.8 | 8.0 | 0.00 | 0.00 | 0.00 | 81 | 1014.7 |
| 20260905130225 | 25 | 146 | 4.8 | 6.4 | 0.00 | 0.00 | 0.00 | 81 | 1014.7 |
| 20260905130042 | 25 | 146 | 3.2 | 6.4 | 0.00 | 0.00 | 0.00 | 81 | 1011.8 |
| 20260905125736 | 25 | 146 | 4.8 | 6.4 | 0.00 | 0.00 | 0.00 | 82 | 1014.7 |
| 20260905125307 | 25 | 146 | 3.2 | 6.4 | 0.00 | 0.00 | 0.00 | 82 | 1014.6 |
| 20260905124731 | 25 | 146 | 3.2 | 8.0 | 0.00 | 0.00 | 0.00 | 81 | 1014.5 |
| 20260905124534 | 24 | 146 | 3.2 | 8.0 | 0.00 | 0.00 | 0.00 | 81 | 1011.5 |
| 20260905124243 | 25 | 146 | 4.8 | 8.0 | 0.00 | 0.00 | 0.00 | 81 | 1014.3 |
| 20260905123753 | 25 | 146 | 4.8 | 6.4 | 0.00 | 0.00 | 0.00 | 81 | 1014.3 |
| 20260905123241 | 24 | 146 | 3.2 | 6.4 | 0.00 | 0.00 | 0.00 | 81 | 1014.2 |